QPF
0.00 0.00 0.01 0.03 0.03 0.01 0.00 0.00 0.00 0.00 0.00 0.00 0.00 0.00 0.00 0.00 0.00 0.00 0.00 0.00 0.00 0.00 0.00 0.00 0.00 0.00 0.00 0.00 0.00 0.00 0.00 0.00 0.00 0.00 0.00 0.00 0.00 0.00 0.00 0.00 0.00 0.00 0.00 0.00 0.00 0.00 0.00 0.00 0.00
0.00 0.00 0.00 0.01 0.03 0.01 0.01 0.00 0.00 0.00 0.00 0.00 0.00 0.00 0.00 0.00 0.00 0.00 0.00 0.00 0.00 0.00 0.00 0.00 0.00 0.00 0.00 0.00 0.00 0.00 0.00 0.00 0.00 0.00 0.00 0.00 0.00 0.00 0.00 0.00 0.00 0.00 0.00 0.00 0.00 0.00 0.00 0.00 0.00
0.00 0.00 0.00 0.00 0.01 0.01 0.00 0.00 0.00 0.00 0.00 0.00 0.00 0.00 0.00 0.00 0.00 0.00 0.00 0.00 0.00 0.00 0.00 0.00 0.00 0.00 0.00 0.00 0.00 0.00 0.00 0.00 0.00 0.00 0.00 0.00 0.00 0.00 0.00 0.00 0.00 0.00 0.00 0.00 0.00 0.00 0.00 0.00 0.00
0.00 0.00 0.00 0.00 0.01 0.01 0.01 0.00 0.00 0.00 0.00 0.00 0.00 0.00 0.00 0.00 0.00 0.00 0.00 0.00 0.00 0.00 0.00 0.00 0.00 0.00 0.00 0.00 0.00 0.00 0.00 0.00 0.00 0.00 0.00 0.00 0.00 0.00 0.00 0.00 0.00 0.00 0.00 0.00 0.00 0.00 0.00 0.00 0.00
0.00 0.00 0.00 0.00 0.01 0.01 0.01 0.01 0.01 0.00 0.00 0.00 0.00 0.00 0.00 0.00 0.00 0.00 0.00 0.00 0.00 0.00 0.00 0.00 0.00 0.00 0.00 0.00 0.00 0.00 0.00 0.00 0.00 0.00 0.00 0.00 0.00 0.00 0.00 0.00 0.00 0.00 0.00 0.00 0.00 0.00 0.00 0.00 0.00
0.00 0.00 0.00 0.00 0.01 0.02 0.01 0.01 0.01 0.01 0.00 0.00 0.00 0.00 0.00 0.00 0.00 0.00 0.00 0.00 0.00 0.00 0.00 0.00 0.00 0.00 0.00 0.00 0.00 0.00 0.00 0.00 0.00 0.00 0.00 0.00 0.00 0.00 0.00 0.00 0.00 0.00 0.00 0.00 0.00 0.00 0.00 0.00 0.00
0.00 0.00 0.00 0.00 0.01 0.01 0.01 0.01 0.01 0.01 0.00 0.00 0.00 0.00 0.00 0.00 0.00 0.00 0.00 0.00 0.00 0.00 0.00 0.00 0.00 0.00 0.00 0.00 0.00 0.00 0.00 0.00 0.00 0.00 0.00 0.00 0.00 0.00 0.00 0.00 0.00 0.00 0.00 0.00 0.00 0.00 0.00 0.00 0.00
0.00 0.00 0.00 0.00 0.00 0.00 0.00 0.00 0.00 0.00 0.00 0.00 0.00 0.00 0.00 0.00 0.00 0.00 0.00 0.00 0.00 0.00 0.00 0.00 0.00 0.00 0.00 0.00 0.00 0.00 0.00 0.00 0.00 0.00 0.00 0.00 0.00 0.00 0.00 0.00 0.00 0.00 0.00 0.00 0.00 0.00 0.00 0.01 0.01
0.00 0.00 0.00 0.00 0.00 0.00 0.00 0.00 0.00 0.00 0.00 0.00 0.00 0.00 0.00 0.00 0.00 0.00 0.00 0.00 0.00 0.00 0.00 0.00 0.00 0.00 0.00 0.00 0.00 0.00 0.00 0.00 0.00 0.00 0.00 0.00 0.00 0.00 0.00 0.00 0.00 0.00 0.00 0.00 0.01 0.01 0.01 0.01 0.01
0.00 0.00 0.00 0.00 0.00 0.00 0.00 0.00 0.00 0.00 0.00 0.00 0.00 0.00 0.00 0.00 0.00 0.00 0.00 0.00 0.00 0.00 0.00 0.00 0.00 0.00 0.00 0.00 0.00 0.00 0.00 0.00 0.00 0.00 0.00 0.00 0.00 0.00 0.00 0.00 0.00 0.00 0.02 0.03 0.03 0.05 0.05 0.03 0.02
0.00 0.00 0.00 0.00 0.00 0.00 0.00 0.00 0.00 0.00 0.00 0.00 0.00 0.00 0.00 0.00 0.00 0.00 0.00 0.00 0.00 0.00 0.00 0.00 0.00 0.00 0.00 0.00 0.00 0.00 0.00 0.00 0.00 0.00 0.00 0.00 0.00 0.00 0.00 0.00 0.00 0.01 0.04 0.07 0.09 0.10 0.06 0.04 0.03
0.00 0.00 0.00 0.00 0.00 0.00 0.00 0.00 0.00 0.00 0.00 0.00 0.00 0.00 0.00 0.00 0.00 0.00 0.00 0.00 0.00 0.00 0.00 0.00 0.00 0.00 0.00 0.00 0.00 0.00 0.00 0.00 0.00 0.00 0.00 0.00 0.00 0.00 0.00 0.00 0.01 0.02 0.04 0.07 0.09 0.08 0.06 0.04 0.02
0.00 0.00 0.00 0.00 0.00 0.00 0.00 0.00 0.00 0.00 0.00 0.00 0.00 0.00 0.00 0.00 0.00 0.00 0.00 0.00 0.00 0.00 0.00 0.00 0.00 0.00 0.00 0.00 0.00 0.00 0.00 0.00 0.00 0.00 0.01 0.02 0.01 0.01 0.01 0.01 0.02 0.03 0.06 0.08 0.12 0.14 0.12 0.08 0.05
0.00 0.00 0.00 0.00 0.00 0.00 0.00 0.00 0.00 0.00 0.00 0.00 0.00 0.00 0.00 0.00 0.00 0.00 0.00 0.00 0.00 0.00 0.00 0.00 0.00 0.01 0.01 0.01 0.01 0.01 0.00 0.01 0.01 0.02 0.04 0.07 0.08 0.07 0.08 0.08 0.08 0.08 0.08 0.08 0.11 0.13 0.16 0.12 0.08
0.00 0.00 0.00 0.00 0.00 0.00 0.00 0.00 0.00 0.00 0.00 0.00 0.00 0.00 0.00 0.00 0.00 0.00 0.00 0.00 0.00 0.00 0.00 0.01 0.02 0.03 0.03 0.03 0.03 0.03 0.04 0.05 0.07 0.10 0.14 0.20 0.24 0.23 0.24 0.19 0.12 0.11 0.16 0.18 0.16 0.15 0.17 0.12 0.11
0.00 0.00 0.00 0.00 0.00 0.00 0.00 0.00 0.00 0.00 0.00 0.00 0.00 0.00 0.00 0.01 0.01 0.01 0.01 0.00 0.00 0.01 0.02 0.04 0.05 0.06 0.07 0.08 0.11 0.14 0.15 0.17 0.16 0.13 0.14 0.18 0.24 0.25 0.24 0.14 0.04 0.07 0.18 0.24 0.23 0.20 0.20 0.15 0.16
0.00 0.00 0.00 0.00 0.00 0.00 0.00 0.00 0.00 0.00 0.00 0.00 0.01 0.01 0.01 0.01 0.02 0.02 0.02 0.01 0.01 0.02 0.03 0.07 0.09 0.10 0.11 0.14 0.19 0.22 0.22 0.18 0.14 0.12 0.09 0.09 0.11 0.14 0.15 0.06 0.02 0.09 0.19 0.22 0.24 0.23 0.24 0.18 0.15
0.00 0.00 0.00 0.00 0.00 0.00 0.00 0.00 0.01 0.01 0.02 0.02 0.02 0.03 0.03 0.03 0.02 0.02 0.03 0.02 0.02 0.02 0.05 0.08 0.08 0.06 0.05 0.05 0.07 0.08 0.08 0.07 0.05 0.04 0.03 0.03 0.03 0.04 0.06 0.04 0.03 0.11 0.18 0.15 0.22 0.28 0.29 0.21 0.16
0.00 0.00 0.00 0.00 0.00 0.00 0.00 0.00 0.01 0.03 0.04 0.04 0.03 0.03 0.04 0.03 0.02 0.03 0.02 0.01 0.01 0.01 0.02 0.02 0.02 0.01 0.00 0.01 0.01 0.01 0.01 0.01 0.01 0.01 0.01 0.01 0.01 0.01 0.03 0.02 0.03 0.07 0.09 0.06 0.13 0.20 0.21 0.12 0.22
0.00 0.00 0.00 0.00 0.00 0.00 0.00 0.00 0.00 0.01 0.01 0.01 0.01 0.02 0.03 0.03 0.02 0.01 0.01 0.00 0.00 0.00 0.00 0.00 0.00 0.00 0.00 0.00 0.00 0.00 0.00 0.00 0.00 0.00 0.00 0.00 0.00 0.00 0.01 0.01 0.01 0.02 0.02 0.02 0.04 0.09 0.11 0.07 0.19
0.00 0.00 0.00 0.00 0.00 0.00 0.00 0.00 0.00 0.00 0.01 0.01 0.01 0.02 0.03 0.03 0.01 0.00 0.00 0.00 0.00 0.00 0.00 0.00 0.00 0.00 0.00 0.00 0.00 0.00 0.00 0.00 0.00 0.00 0.00 0.00 0.00 0.00 0.00 0.00 0.00 0.00 0.01 0.00 0.01 0.04 0.07 0.06 0.08
0.00 0.00 0.00 0.00 0.00 0.00 0.00 0.00 0.00 0.00 0.01 0.01 0.01 0.02 0.02 0.02 0.01 0.00 0.00 0.00 0.00 0.00 0.00 0.00 0.00 0.00 0.00 0.00 0.00 0.00 0.00 0.00 0.00 0.00 0.00 0.00 0.00 0.00 0.00 0.00 0.00 0.00 0.00 0.00 0.01 0.02 0.03 0.04 0.04
0.00 0.00 0.00 0.00 0.00 0.00 0.00 0.00 0.00 0.00 0.01 0.02 0.02 0.02 0.02 0.01 0.00 0.00 0.00 0.00 0.00 0.00 0.00 0.00 0.00 0.00 0.00 0.00 0.00 0.00 0.00 0.00 0.00 0.00 0.00 0.00 0.00 0.00 0.00 0.00 0.00 0.00 0.00 0.00 0.01 0.01 0.01 0.03 0.03
0.00 0.00 0.00 0.00 0.00 0.00 0.00 0.00 0.00 0.00 0.00 0.01 0.01 0.01 0.01 0.00 0.00 0.00 0.00 0.00 0.00 0.00 0.00 0.00 0.00 0.00 0.00 0.00 0.00 0.00 0.00 0.00 0.00 0.00 0.00 0.00 0.00 0.00 0.00 0.00 0.00 0.00 0.00 0.00 0.01 0.01 0.01 0.02 0.03
0.00 0.00 0.00 0.00 0.00 0.00 0.00 0.00 0.00 0.00 0.00 0.00 0.00 0.00 0.00 0.01 0.00 0.00 0.00 0.00 0.00 0.00 0.00 0.00 0.00 0.00 0.00 0.00 0.00 0.00 0.00 0.00 0.00 0.00 0.00 0.00 0.00 0.00 0.00 0.00 0.00 0.00 0.00 0.01 0.01 0.01 0.01 0.02 0.02
0.00 0.00 0.00 0.00 0.00 0.00 0.00 0.00 0.00 0.00 0.00 0.00 0.00 0.00 0.01 0.01 0.01 0.00 0.00 0.00 0.00 0.00 0.00 0.00 0.00 0.00 0.00 0.00 0.00 0.00 0.00 0.00 0.00 0.00 0.00 0.00 0.00 0.00 0.00 0.00 0.00 0.00 0.00 0.01 0.01 0.02 0.02 0.03 0.03
0.00 0.00 0.00 0.00 0.00 0.00 0.00 0.00 0.00 0.00 0.00 0.00 0.00 0.00 0.01 0.01 0.00 0.00 0.00 0.00 0.00 0.00 0.00 0.00 0.00 0.00 0.00 0.00 0.00 0.00 0.00 0.00 0.00 0.00 0.00 0.00 0.00 0.00 0.00 0.00 0.00 0.00 0.01 0.01 0.02 0.02 0.02 0.03 0.04
0.00 0.00 0.00 0.00 0.00 0.00 0.00 0.00 0.00 0.00 0.00 0.00 0.00 0.00 0.00 0.00 0.00 0.00 0.00 0.00 0.00 0.00 0.00 0.00 0.00 0.00 0.00 0.00 0.00 0.00 0.00 0.00 0.00 0.00 0.00 0.00 0.00 0.00 0.00 0.00 0.00 0.01 0.01 0.01 0.01 0.02 0.02 0.04 0.05
0.00 0.00 0.00 0.00 0.00 0.00 0.00 0.00 0.00 0.00 0.00 0.00 0.00 0.00 0.00 0.00 0.00 0.00 0.00 0.00 0.00 0.00 0.00 0.00 0.00 0.00 0.00 0.00 0.00 0.00 0.00 0.00 0.00 0.00 0.00 0.00 0.00 0.00 0.00 0.00 0.01 0.01 0.01 0.01 0.02 0.04 0.07 0.11 0.14
0.00 0.00 0.00 0.00 0.00 0.00 0.00 0.00 0.00 0.00 0.00 0.00 0.00 0.00 0.00 0.00 0.00 0.00 0.00 0.00 0.00 0.00 0.00 0.00 0.00 0.00 0.00 0.00 0.00 0.00 0.00 0.00 0.00 0.00 0.00 0.00 0.00 0.00 0.00 0.00 0.00 0.01 0.01 0.02 0.06 0.09 0.12 0.18 0.23
MSLP
1009.00 1010.02 1011.12 1012.11 1012.82 1013.15 1013.07 1012.66 1012.05 1011.41 1010.90 1010.63 1010.62 1010.83 1011.16 1011.48 1011.67 1011.67 1011.49 1011.19 1010.87 1010.66 1010.62 1010.80 1011.19 1011.72 1012.28 1012.79 1013.18 1013.43 1013.57 1013.64 1013.70 1013.82 1014.01 1014.28 1014.58 1014.88 1015.13 1015.30 1015.39 1015.42 1015.42 1015.42 1015.44 1015.51 1015.61 1015.73 1015.85
1009.40 1010.55 1011.71 1012.66 1013.26 1013.41 1013.12 1012.48 1011.65 1010.82 1010.17 1009.80 1009.74 1009.94 1010.29 1010.65 1010.91 1011.00 1010.92 1010.74 1010.55 1010.45 1010.52 1010.79 1011.25 1011.80 1012.38 1012.90 1013.29 1013.55 1013.71 1013.79 1013.89 1014.02 1014.22 1014.48 1014.76 1015.01 1015.22 1015.35 1015.40 1015.41 1015.41 1015.43 1015.49 1015.59 1015.72 1015.85 1015.98
1009.89 1011.13 1012.29 1013.18 1013.64 1013.60 1013.11 1012.28 1011.29 1010.35 1009.63 1009.22 1009.14 1009.35 1009.71 1010.10 1010.41 1010.56 1010.56 1010.47 1010.37 1010.36 1010.51 1010.85 1011.34 1011.91 1012.49 1013.00 1013.38 1013.65 1013.81 1013.92 1014.03 1014.18 1014.39 1014.63 1014.88 1015.09 1015.25 1015.33 1015.36 1015.35 1015.36 1015.40 1015.49 1015.63 1015.79 1015.95 1016.08
1010.46 1011.72 1012.83 1013.60 1013.91 1013.70 1013.05 1012.10 1011.02 1010.04 1009.31 1008.91 1008.87 1009.09 1009.48 1009.89 1010.21 1010.39 1010.43 1010.39 1010.35 1010.41 1010.61 1010.97 1011.48 1012.04 1012.60 1013.08 1013.45 1013.70 1013.86 1013.99 1014.12 1014.29 1014.50 1014.74 1014.96 1015.14 1015.25 1015.30 1015.30 1015.28 1015.30 1015.36 1015.49 1015.66 1015.85 1016.02 1016.16
1011.06 1012.27 1013.27 1013.89 1014.03 1013.68 1012.92 1011.90 1010.82 1009.87 1009.20 1008.87 1008.88 1009.15 1009.55 1009.96 1010.28 1010.46 1010.51 1010.49 1010.49 1010.57 1010.80 1011.17 1011.66 1012.20 1012.71 1013.15 1013.48 1013.71 1013.87 1014.01 1014.16 1014.35 1014.57 1014.81 1015.02 1015.17 1015.26 1015.27 1015.26 1015.24 1015.26 1015.34 1015.49 1015.68 1015.88 1016.06 1016.19
1011.61 1012.72 1013.56 1014.00 1013.98 1013.50 1012.67 1011.65 1010.62 1009.77 1009.21 1008.99 1009.09 1009.40 1009.82 1010.23 1010.53 1010.69 1010.73 1010.72 1010.73 1010.82 1011.06 1011.42 1011.88 1012.37 1012.82 1013.20 1013.48 1013.68 1013.83 1013.97 1014.14 1014.35 1014.59 1014.84 1015.05 1015.20 1015.27 1015.28 1015.24 1015.22 1015.24 1015.33 1015.48 1015.67 1015.87 1016.05 1016.16
1012.06 1013.00 1013.65 1013.90 1013.72 1013.14 1012.28 1011.30 1010.37 1009.65 1009.24 1009.15 1009.34 1009.71 1010.16 1010.55 1010.83 1010.97 1011.00 1010.99 1011.00 1011.11 1011.33 1011.68 1012.10 1012.53 1012.92 1013.24 1013.47 1013.62 1013.75 1013.89 1014.07 1014.30 1014.57 1014.83 1015.06 1015.21 1015.28 1015.28 1015.24 1015.21 1015.22 1015.29 1015.42 1015.60 1015.78 1015.93 1016.03
1012.37 1013.11 1013.54 1013.59 1013.26 1012.60 1011.73 1010.82 1010.02 1009.45 1009.19 1009.23 1009.52 1009.94 1010.40 1010.80 1011.06 1011.19 1011.22 1011.22 1011.25 1011.36 1011.59 1011.92 1012.30 1012.68 1013.01 1013.26 1013.43 1013.54 1013.64 1013.78 1013.97 1014.21 1014.50 1014.78 1015.02 1015.19 1015.26 1015.26 1015.22 1015.17 1015.15 1015.19 1015.30 1015.43 1015.58 1015.70 1015.77
1012.52 1013.04 1013.26 1013.12 1012.65 1011.92 1011.07 1010.24 1009.56 1009.14 1009.01 1009.17 1009.53 1010.01 1010.48 1010.88 1011.14 1011.28 1011.32 1011.34 1011.40 1011.55 1011.78 1012.10 1012.45 1012.79 1013.06 1013.25 1013.37 1013.45 1013.53 1013.64 1013.83 1014.09 1014.38 1014.68 1014.93 1015.10 1015.18 1015.18 1015.12 1015.06 1015.01 1015.01 1015.07 1015.16 1015.26 1015.35 1015.39
1012.54 1012.86 1012.86 1012.55 1011.97 1011.20 1010.37 1009.61 1009.04 1008.74 1008.73 1008.96 1009.38 1009.89 1010.37 1010.77 1011.04 1011.20 1011.28 1011.35 1011.45 1011.63 1011.89 1012.20 1012.54 1012.84 1013.08 1013.22 1013.30 1013.35 1013.40 1013.50 1013.67 1013.92 1014.21 1014.51 1014.76 1014.94 1015.02 1015.01 1014.95 1014.85 1014.78 1014.74 1014.74 1014.78 1014.84 1014.89 1014.91
1012.49 1012.62 1012.45 1011.99 1011.32 1010.53 1009.73 1009.04 1008.56 1008.34 1008.40 1008.69 1009.13 1009.64 1010.12 1010.52 1010.81 1011.00 1011.12 1011.24 1011.39 1011.60 1011.89 1012.21 1012.54 1012.83 1013.04 1013.16 1013.22 1013.24 1013.26 1013.34 1013.49 1013.71 1013.98 1014.26 1014.50 1014.67 1014.75 1014.74 1014.67 1014.56 1014.45 1014.37 1014.33 1014.33 1014.35 1014.37 1014.38
1012.45 1012.41 1012.10 1011.55 1010.83 1010.03 1009.27 1008.64 1008.22 1008.05 1008.14 1008.44 1008.88 1009.37 1009.84 1010.23 1010.53 1010.74 1010.91 1011.06 1011.25 1011.50 1011.80 1012.13 1012.46 1012.73 1012.93 1013.05 1013.10 1013.11 1013.12 1013.18 1013.30 1013.48 1013.71 1013.95 1014.17 1014.32 1014.39 1014.37 1014.29 1014.18 1014.06 1013.95 1013.88 1013.84 1013.82 1013.82 1013.83
1012.46 1012.30 1011.89 1011.29 1010.55 1009.78 1009.07 1008.49 1008.12 1007.98 1008.07 1008.35 1008.74 1009.19 1009.63 1010.01 1010.31 1010.53 1010.71 1010.89 1011.09 1011.34 1011.64 1011.97 1012.29 1012.56 1012.77 1012.89 1012.95 1012.96 1012.97 1013.00 1013.08 1013.22 1013.40 1013.59 1013.76 1013.88 1013.94 1013.92 1013.85 1013.74 1013.61 1013.50 1013.41 1013.35 1013.31 1013.30 1013.30
1012.57 1012.33 1011.87 1011.26 1010.56 1009.85 1009.20 1008.68 1008.33 1008.20 1008.27 1008.49 1008.83 1009.22 1009.61 1009.95 1010.22 1010.43 1010.61 1010.77 1010.95 1011.18 1011.45 1011.75 1012.05 1012.32 1012.54 1012.69 1012.77 1012.80 1012.81 1012.83 1012.87 1012.95 1013.06 1013.18 1013.30 1013.39 1013.43 1013.42 1013.35 1013.26 1013.15 1013.04 1012.95 1012.88 1012.84 1012.81 1012.80
1012.77 1012.49 1012.04 1011.47 1010.84 1010.21 1009.64 1009.18 1008.86 1008.72 1008.74 1008.90 1009.16 1009.47 1009.79 1010.08 1010.31 1010.49 1010.63 1010.75 1010.88 1011.05 1011.26 1011.51 1011.78 1012.04 1012.27 1012.45 1012.57 1012.63 1012.65 1012.66 1012.66 1012.68 1012.71 1012.77 1012.82 1012.87 1012.89 1012.87 1012.83 1012.76 1012.68 1012.59 1012.51 1012.44 1012.39 1012.36 1012.34
1013.02 1012.74 1012.34 1011.85 1011.33 1010.81 1010.34 1009.94 1009.64 1009.48 1009.44 1009.52 1009.69 1009.92 1010.16 1010.39 1010.56 1010.69 1010.76 1010.82 1010.87 1010.96 1011.09 1011.27 1011.50 1011.75 1012.00 1012.21 1012.37 1012.47 1012.51 1012.51 1012.47 1012.43 1012.39 1012.37 1012.35 1012.35 1012.34 1012.33 1012.30 1012.25 1012.20 1012.13 1012.07 1012.00 1011.96 1011.92 1011.90
1013.28 1013.03 1012.72 1012.36 1011.97 1011.58 1011.21 1010.86 1010.58 1010.37 1010.26 1010.25 1010.32 1010.46 1010.62 1010.78 1010.90 1010.96 1010.98 1010.95 1010.92 1010.91 1010.95 1011.06 1011.24 1011.47 1011.73 1011.98 1012.19 1012.33 1012.40 1012.39 1012.33 1012.23 1012.11 1012.01 1011.92 1011.86 1011.82 1011.79 1011.77 1011.74 1011.71 1011.66 1011.61 1011.56 1011.51 1011.47 1011.44
1013.47 1013.31 1013.12 1012.91 1012.69 1012.43 1012.15 1011.85 1011.56 1011.29 1011.09 1010.97 1010.93 1010.97 1011.06 1011.15 1011.22 1011.23 1011.19 1011.09 1010.98 1010.88 1010.84 1010.87 1011.01 1011.22 1011.49 1011.78 1012.03 1012.22 1012.32 1012.32 1012.23 1012.08 1011.90 1011.71 1011.55 1011.42 1011.34 1011.28 1011.25 1011.23 1011.20 1011.17 1011.12 1011.08 1011.03 1010.99 1010.96
1013.57 1013.53 1013.51 1013.48 1013.42 1013.29 1013.09 1012.82 1012.48 1012.14 1011.82 1011.57 1011.41 1011.35 1011.36 1011.40 1011.43 1011.41 1011.33 1011.19 1011.02 1010.85 1010.74 1010.72 1010.81 1011.01 1011.29 1011.61 1011.91 1012.14 1012.27 1012.29 1012.19 1012.00 1011.76 1011.50 1011.26 1011.07 1010.92 1010.82 1010.76 1010.72 1010.68 1010.64 1010.60 1010.55 1010.50 1010.46 1010.43
1013.59 1013.71 1013.87 1014.03 1014.13 1014.13 1013.99 1013.70 1013.30 1012.84 1012.38 1011.98 1011.69 1011.52 1011.46 1011.45 1011.47 1011.44 1011.35 1011.19 1010.99 1010.79 1010.64 1010.58 1010.64 1010.83 1011.13 1011.47 1011.81 1012.09 1012.26 1012.29 1012.19 1011.97 1011.68 1011.37 1011.06 1010.79 1010.58 1010.43 1010.31 1010.23 1010.16 1010.10 1010.04 1009.98 1009.92 1009.89 1009.87
1013.56 1013.87 1014.23 1014.58 1014.84 1014.93 1014.82 1014.49 1013.99 1013.38 1012.76 1012.20 1011.77 1011.49 1011.36 1011.32 1011.32 1011.31 1011.24 1011.10 1010.90 1010.69 1010.52 1010.44 1010.49 1010.68 1010.98 1011.35 1011.72 1012.03 1012.24 1012.29 1012.20 1011.98 1011.67 1011.31 1010.94 1010.61 1010.32 1010.10 1009.92 1009.78 1009.66 1009.55 1009.46 1009.37 1009.31 1009.28 1009.28
1013.56 1014.06 1014.62 1015.15 1015.54 1015.71 1015.60 1015.21 1014.59 1013.83 1013.03 1012.30 1011.73 1011.33 1011.12 1011.05 1011.06 1011.07 1011.03 1010.92 1010.75 1010.55 1010.38 1010.30 1010.34 1010.52 1010.83 1011.21 1011.60 1011.95 1012.18 1012.28 1012.21 1011.99 1011.67 1011.29 1010.88 1010.49 1010.14 1009.84 1009.58 1009.36 1009.17 1009.01 1008.87 1008.76 1008.68 1008.66 1008.68
1013.65 1014.33 1015.08 1015.76 1016.26 1016.47 1016.35 1015.89 1015.15 1014.23 1013.27 1012.38 1011.67 1011.17 1010.89 1010.78 1010.78 1010.81 1010.80 1010.73 1010.59 1010.42 1010.26 1010.17 1010.20 1010.37 1010.66 1011.04 1011.45 1011.81 1012.08 1012.20 1012.16 1011.97 1011.67 1011.27 1010.85 1010.41 1010.00 1009.63 1009.29 1008.99 1008.72 1008.49 1008.29 1008.15 1008.06 1008.03 1008.07
1013.87 1014.71 1015.60 1016.40 1016.97 1017.22 1017.07 1016.55 1015.71 1014.67 1013.58 1012.56 1011.73 1011.13 1010.78 1010.64 1010.62 1010.65 1010.67 1010.61 1010.49 1010.33 1010.17 1010.07 1010.08 1010.23 1010.49 1010.85 1011.24 1011.61 1011.89 1012.04 1012.04 1011.89 1011.61 1011.23 1010.80 1010.34 1009.89 1009.45 1009.04 1008.66 1008.31 1008.00 1007.75 1007.56 1007.45 1007.42 1007.47
1014.21 1015.16 1016.15 1017.03 1017.66 1017.92 1017.77 1017.20 1016.31 1015.19 1014.02 1012.92 1012.01 1011.34 1010.93 1010.74 1010.69 1010.70 1010.70 1010.65 1010.52 1010.35 1010.17 1010.04 1010.02 1010.11 1010.33 1010.64 1011.00 1011.35 1011.63 1011.80 1011.83 1011.71 1011.47 1011.13 1010.71 1010.25 1009.77 1009.28 1008.81 1008.35 1007.93 1007.56 1007.25 1007.02 1006.88 1006.84 1006.90
1014.65 1015.65 1016.69 1017.60 1018.25 1018.53 1018.39 1017.83 1016.93 1015.81 1014.63 1013.51 1012.57 1011.86 1011.40 1011.16 1011.06 1011.02 1010.98 1010.88 1010.72 1010.51 1010.29 1010.11 1010.02 1010.05 1010.20 1010.44 1010.74 1011.05 1011.31 1011.47 1011.52 1011.44 1011.24 1010.94 1010.56 1010.11 1009.62 1009.11 1008.60 1008.09 1007.60 1007.17 1006.81 1006.54 1006.37 1006.33 1006.39
1015.10 1016.10 1017.13 1018.04 1018.70 1019.00 1018.89 1018.38 1017.55 1016.50 1015.38 1014.31 1013.39 1012.68 1012.20 1011.90 1011.74 1011.63 1011.51 1011.34 1011.11 1010.83 1010.55 1010.30 1010.13 1010.07 1010.12 1010.27 1010.49 1010.73 1010.94 1011.09 1011.14 1011.09 1010.93 1010.67 1010.33 1009.92 1009.45 1008.94 1008.40 1007.86 1007.34 1006.86 1006.46 1006.16 1005.97 1005.91 1005.96
1015.49 1016.45 1017.43 1018.31 1018.95 1019.28 1019.23 1018.82 1018.12 1017.20 1016.21 1015.25 1014.41 1013.74 1013.24 1012.90 1012.66 1012.47 1012.25 1011.99 1011.67 1011.30 1010.93 1010.59 1010.33 1010.17 1010.12 1010.16 1010.27 1010.41 1010.55 1010.66 1010.70 1010.66 1010.53 1010.33 1010.04 1009.68 1009.25 1008.77 1008.24 1007.70 1007.16 1006.66 1006.24 1005.91 1005.70 1005.63 1005.67
1015.78 1016.65 1017.55 1018.37 1019.00 1019.35 1019.39 1019.12 1018.58 1017.85 1017.04 1016.24 1015.51 1014.90 1014.42 1014.04 1013.73 1013.43 1013.11 1012.74 1012.32 1011.87 1011.40 1010.98 1010.62 1010.35 1010.18 1010.10 1010.09 1010.12 1010.17 1010.21 1010.22 1010.18 1010.08 1009.93 1009.71 1009.41 1009.05 1008.62 1008.14 1007.62 1007.10 1006.60 1006.17 1005.84 1005.62 1005.53 1005.56
1015.96 1016.73 1017.54 1018.29 1018.89 1019.27 1019.40 1019.27 1018.92 1018.40 1017.78 1017.15 1016.55 1016.02 1015.56 1015.15 1014.77 1014.38 1013.96 1013.49 1012.98 1012.44 1011.90 1011.39 1010.94 1010.57 1010.29 1010.08 1009.94 1009.85 1009.80 1009.76 1009.72 1009.67 1009.60 1009.49 1009.34 1009.13 1008.86 1008.51 1008.10 1007.64 1007.16 1006.70 1006.28 1005.95 1005.73 1005.63 1005.64
Thickness
5837 5835 5831 5822 5805 5790 5792 5806 5816 5819 5825 5837 5840 5834 5825 5818 5812 5809 5827 5836 5833 5828 5823 5818 5813 5808 5804 5800 5797 5794 5791 5789 5787 5785 5783 5781 5779 5777 5775 5773 5771 5769 5768 5767 5765 5763 5762 5760 5758
5838 5835 5826 5814 5796 5777 5790 5813 5817 5825 5834 5840 5840 5835 5827 5822 5827 5826 5828 5832 5831 5827 5821 5816 5811 5807 5803 5799 5796 5793 5791 5789 5786 5784 5782 5780 5778 5776 5774 5772 5770 5768 5767 5766 5764 5763 5761 5759 5757
5840 5837 5819 5807 5794 5785 5798 5819 5825 5836 5843 5842 5835 5835 5829 5825 5828 5829 5833 5833 5829 5825 5820 5815 5810 5806 5802 5798 5795 5793 5790 5788 5786 5783 5781 5778 5777 5775 5773 5771 5769 5768 5766 5765 5763 5762 5761 5759 5757
5837 5826 5817 5802 5797 5805 5813 5826 5833 5835 5841 5844 5838 5828 5831 5838 5836 5836 5836 5832 5827 5823 5818 5814 5809 5804 5800 5796 5793 5791 5788 5786 5784 5781 5779 5777 5775 5773 5772 5770 5768 5767 5765 5764 5762 5761 5759 5758 5756
5832 5816 5800 5789 5797 5813 5827 5836 5839 5833 5836 5839 5837 5825 5824 5834 5841 5838 5835 5830 5825 5821 5817 5812 5808 5803 5798 5794 5791 5788 5786 5783 5781 5779 5777 5774 5772 5771 5770 5768 5767 5765 5763 5762 5760 5759 5758 5756 5755
5815 5805 5784 5780 5796 5818 5833 5842 5841 5837 5835 5838 5834 5824 5821 5831 5834 5833 5832 5828 5824 5820 5815 5810 5806 5801 5797 5793 5790 5787 5785 5782 5780 5778 5776 5773 5771 5770 5768 5767 5765 5763 5762 5760 5759 5758 5756 5755 5753
5806 5792 5785 5790 5792 5809 5831 5844 5840 5835 5832 5835 5838 5821 5821 5827 5831 5832 5829 5825 5820 5816 5812 5808 5804 5800 5796 5792 5789 5786 5784 5782 5780 5778 5775 5773 5771 5769 5767 5766 5764 5762 5761 5759 5758 5757 5755 5754 5752
5811 5793 5788 5787 5794 5807 5832 5841 5846 5841 5836 5846 5841 5823 5819 5828 5831 5828 5824 5819 5816 5812 5809 5805 5802 5798 5795 5791 5788 5785 5783 5781 5779 5777 5774 5772 5770 5769 5767 5766 5764 5762 5760 5759 5757 5756 5755 5754 5752
5812 5784 5778 5791 5798 5810 5830 5833 5842 5852 5843 5843 5844 5839 5838 5836 5830 5822 5816 5812 5809 5807 5806 5803 5800 5797 5794 5790 5787 5785 5782 5780 5778 5775 5773 5771 5770 5768 5766 5765 5763 5762 5760 5759 5757 5756 5755 5754 5752
5797 5776 5790 5807 5815 5818 5825 5829 5836 5838 5832 5832 5834 5837 5838 5831 5823 5817 5812 5807 5805 5803 5803 5801 5798 5795 5792 5789 5786 5783 5781 5779 5776 5774 5772 5770 5768 5766 5764 5762 5761 5761 5760 5759 5757 5756 5754 5753 5752
5799 5789 5802 5814 5822 5823 5822 5829 5837 5829 5823 5832 5833 5830 5830 5825 5818 5813 5810 5807 5805 5803 5800 5798 5795 5792 5789 5786 5783 5781 5778 5776 5774 5772 5770 5767 5764 5762 5760 5759 5758 5758 5757 5756 5756 5755 5754 5753 5752
5797 5801 5808 5817 5825 5824 5824 5828 5831 5830 5835 5848 5846 5839 5831 5823 5817 5813 5808 5805 5802 5798 5796 5794 5791 5787 5784 5781 5778 5776 5774 5772 5770 5768 5766 5763 5760 5758 5756 5755 5755 5754 5753 5752 5752 5753 5752 5752 5751
5796 5801 5810 5818 5820 5823 5825 5824 5827 5830 5841 5845 5839 5830 5825 5820 5816 5812 5809 5803 5798 5793 5790 5788 5785 5782 5778 5774 5772 5770 5769 5767 5765 5763 5760 5758 5756 5754 5752 5752 5751 5750 5748 5748 5748 5748 5748 5749 5749
5796 5801 5804 5810 5814 5821 5819 5820 5821 5827 5835 5833 5828 5821 5819 5815 5811 5806 5801 5796 5793 5790 5786 5784 5779 5775 5771 5768 5766 5765 5763 5761 5759 5757 5755 5753 5751 5750 5748 5748 5748 5747 5745 5744 5744 5744 5744 5744 5745
5794 5790 5796 5804 5807 5813 5814 5805 5814 5826 5826 5821 5817 5814 5811 5808 5805 5801 5798 5794 5790 5786 5783 5778 5774 5769 5764 5761 5759 5757 5756 5754 5752 5751 5750 5748 5746 5744 5744 5743 5744 5744 5742 5741 5741 5741 5740 5740 5740
5782 5774 5769 5786 5796 5804 5798 5785 5808 5818 5815 5807 5805 5803 5800 5798 5797 5796 5794 5790 5786 5782 5777 5773 5770 5764 5760 5757 5755 5753 5751 5749 5747 5746 5744 5742 5741 5739 5738 5738 5740 5740 5738 5738 5737 5737 5736 5736 5736
5755 5749 5755 5768 5787 5791 5786 5779 5795 5806 5802 5795 5793 5792 5789 5786 5786 5787 5788 5785 5782 5777 5772 5768 5765 5762 5759 5756 5752 5750 5747 5745 5742 5741 5739 5738 5736 5734 5733 5733 5735 5735 5734 5734 5733 5733 5732 5732 5733
5742 5745 5748 5754 5773 5776 5770 5770 5782 5790 5789 5783 5782 5781 5779 5777 5777 5780 5780 5778 5775 5771 5767 5763 5761 5758 5755 5751 5747 5743 5740 5739 5737 5734 5732 5731 5729 5728 5727 5727 5728 5728 5728 5728 5728 5727 5728 5728 5729
5748 5744 5742 5754 5769 5763 5758 5760 5767 5775 5777 5775 5774 5772 5770 5770 5772 5774 5772 5770 5767 5763 5760 5757 5754 5752 5747 5741 5737 5733 5731 5731 5729 5728 5726 5724 5722 5721 5720 5720 5720 5721 5721 5722 5722 5722 5721 5722 5722
5744 5738 5740 5750 5761 5757 5751 5752 5759 5764 5766 5769 5769 5765 5763 5762 5763 5764 5764 5762 5759 5757 5754 5752 5749 5745 5740 5735 5731 5728 5726 5723 5721 5719 5717 5716 5715 5714 5714 5714 5714 5714 5715 5716 5716 5715 5715 5716 5716
5742 5739 5740 5741 5746 5747 5744 5735 5743 5753 5758 5761 5762 5761 5758 5757 5756 5756 5756 5755 5753 5751 5750 5747 5743 5739 5734 5730 5726 5722 5718 5715 5712 5710 5708 5707 5706 5706 5706 5707 5707 5708 5709 5710 5711 5710 5709 5709 5710
5733 5748 5745 5740 5728 5717 5726 5705 5728 5736 5741 5746 5749 5751 5752 5753 5753 5752 5751 5750 5750 5749 5746 5742 5738 5734 5730 5726 5721 5715 5710 5705 5704 5702 5700 5698 5697 5697 5697 5698 5700 5701 5702 5703 5705 5706 5705 5704 5703
5743 5747 5737 5729 5721 5708 5710 5700 5710 5728 5731 5737 5742 5745 5747 5749 5750 5749 5749 5749 5748 5745 5740 5737 5733 5729 5726 5721 5717 5711 5706 5702 5700 5697 5693 5691 5690 5689 5689 5690 5692 5693 5695 5697 5698 5699 5699 5699 5699
5748 5732 5718 5705 5696 5688 5701 5694 5696 5712 5726 5734 5739 5742 5745 5746 5746 5746 5747 5745 5742 5738 5734 5731 5728 5724 5721 5717 5713 5708 5703 5699 5695 5692 5688 5686 5683 5682 5681 5682 5683 5685 5687 5689 5691 5692 5693 5694 5694
5733 5707 5681 5678 5669 5676 5694 5690 5694 5723 5732 5734 5737 5740 5742 5741 5739 5738 5738 5736 5734 5732 5729 5726 5723 5719 5716 5712 5708 5704 5700 5695 5690 5687 5683 5680 5677 5675 5674 5674 5675 5677 5679 5682 5684 5685 5687 5687 5687
5728 5708 5680 5669 5663 5671 5686 5687 5707 5728 5733 5733 5733 5732 5730 5728 5727 5726 5727 5726 5725 5725 5723 5720 5717 5713 5710 5706 5702 5698 5694 5689 5685 5681 5678 5674 5671 5669 5668 5667 5668 5669 5672 5674 5676 5677 5679 5680 5680
5718 5707 5703 5679 5673 5665 5674 5691 5709 5721 5719 5718 5716 5714 5711 5711 5712 5713 5714 5715 5714 5714 5712 5710 5707 5704 5701 5698 5695 5691 5687 5684 5680 5676 5673 5670 5667 5664 5663 5662 5661 5662 5664 5666 5668 5669 5670 5672 5673
5726 5705 5686 5674 5661 5656 5669 5677 5673 5684 5688 5690 5690 5690 5690 5693 5695 5697 5698 5699 5699 5698 5697 5696 5694 5692 5691 5689 5686 5684 5680 5677 5674 5670 5667 5665 5662 5659 5657 5656 5655 5656 5657 5659 5660 5661 5663 5663 5664
5714 5702 5682 5668 5664 5653 5650 5660 5670 5667 5671 5672 5673 5674 5675 5677 5678 5680 5681 5682 5684 5685 5684 5682 5681 5679 5678 5678 5677 5675 5673 5670 5667 5664 5662 5659 5657 5654 5652 5650 5649 5649 5651 5652 5653 5654 5655 5655 5656
5714 5705 5685 5671 5666 5654 5648 5648 5666 5663 5662 5662 5661 5663 5663 5663 5663 5664 5665 5667 5669 5668 5668 5667 5666 5666 5666 5667 5667 5667 5665 5662 5660 5658 5657 5654 5652 5649 5647 5645 5643 5643 5645 5645 5646 5646 5647 5646 5647